Regional Weather Roundup
Issued by NWS

Home | Current Version | Previous Version | Graphics & Text | Print | Product List | Glossary On
Versions: 1 2 3 4 5 6 7 8 9 10 11 12 13 14 15 16 17 18 19 20 21 22 23 24 25 26 27 28 29 30 31 32 33 34 35 36 37 38 39 40 41 42 43 44 45 46 47 48 49 50
000
ASUS43 KBIS 121010
RWRND
NORTH DAKOTA REGIONAL WEATHER ROUNDUP
NATIONAL WEATHER SERVICE EASTERN NORTH DAKOTA/GRAND FORKS ND
400 AM CST FRI FEB 12 2016

  NOTE: "FAIR" INDICATES FEW OR NO CLOUDS BELOW 12,000 FEET WITH NO
  SIGNIFICANT WEATHER AND/OR OBSTRUCTIONS TO VISIBILITY.

NDZ001>003-009>011-017-121100-
...NORTHWEST NORTH DAKOTA...

CITY           SKY/WX    TMP DP  RH WIND       PRES   REMARKS
WILLISTON      CLOUDY    14   8  77 N15       30.44R WCI  -1
MINOT          CLOUDY     4  -5  66 NW13      30.45R WCI -13
MINOT AFB      CLOUDY     2  -5  74 NW3       30.46R
$$

NDZ018>021-031>035-040>046-121100-
...SOUTHWEST NORTH DAKOTA...

CITY           SKY/WX    TMP DP  RH WIND       PRES   REMARKS
BISMARCK       CLOUDY    19  11  70 N8        30.40R WCI   9
DICKINSON      CLOUDY    18  12  77 N9        30.33R WCI   7
GARRISON         N/A      7   1  76 N7        30.42R WCI  -5
HETTINGER      CLOUDY    22  19  89 NW6       30.34R FOG     WCI  14
$$

NDZ004>008-012>016-024-026-027-054-121100-
...NORTHEAST NORTH DAKOTA...

CITY           SKY/WX    TMP DP  RH WIND       PRES   REMARKS
GRAND FORKS    CLEAR      2  -7  66 N18       30.43R WCI -19
GRAND FORKS AF CLEAR      1  -8  66 N18       30.44R WCI -20
DEVILS LAKE    CLOUDY    -3  -7  82 N12       30.43R WCI -21
$$

NDZ022-023-025-028>030-036>039-047>053-121100-
...SOUTHEAST NORTH DAKOTA...

CITY           SKY/WX    TMP DP  RH WIND       PRES   REMARKS
JAMESTOWN      CLOUDY     6   1  80 N14       30.39R WCI -11
FARGO          CLEAR      5  -4  66 N17       30.41R WCI -14
WAHPETON       CLOUDY     9   0  66 NW13      30.38R WCI  -7
$$



USA.gov is the U.S. government's official web portal to all federal, state and local government web resources and services.